Theta_e
311 312 313 314 315 315 316 318 319 321 322 322 323 323 323 324 325 326 327 326 324 324 323 323 325 321 317 319 317 312 310 311 310 309 307 304 301 299 298 298 298 298 299 300 301 301 300 299 298 296 295 295 295 295 295 294 294 294 294 294 294 294 293 293 293 293 294 293 293 293 293 293 293 292 292 293 292 292 292 292 291 290 289 288 288
311 311 311 312 313 313 314 315 315 317 317 318 319 320 320 322 323 324 326 325 324 324 322 322 323 319 317 318 315 311 310 310 309 308 305 301 299 298 297 297 298 299 300 301 301 300 299 298 296 295 295 295 295 294 294 294 294 294 294 294 293 293 293 293 293 293 294 294 293 293 292 292 292 292 292 292 292 292 292 292 291 289 289 288 288
311 311 311 311 311 312 312 312 312 313 313 313 314 316 319 323 325 326 326 325 325 324 321 321 320 318 317 317 313 310 310 310 308 305 302 299 298 297 297 297 298 299 300 301 300 299 297 296 295 295 295 294 294 294 294 294 294 294 294 293 293 293 293 293 293 293 293 293 293 292 292 292 292 291 291 291 291 292 291 291 291 290 289 288 288
312 311 311 310 310 310 311 311 311 311 311 312 314 317 321 325 327 326 324 325 326 324 322 322 320 318 318 316 311 310 310 308 306 303 299 297 297 297 297 298 298 299 300 300 299 297 296 295 295 294 294 294 294 294 294 294 294 293 293 293 293 293 293 292 292 292 292 292 293 292 291 291 291 291 291 291 291 291 291 291 290 290 289 288 288
312 312 311 311 310 310 309 310 311 311 311 314 317 320 321 323 325 324 324 326 325 323 322 321 319 320 318 313 310 310 309 306 304 300 298 297 296 297 297 298 299 299 299 299 297 296 295 294 294 294 294 294 294 294 293 293 294 293 293 293 293 293 292 292 292 292 291 291 292 292 291 291 291 290 290 290 290 291 291 290 290 289 289 288 288
312 312 312 311 310 309 309 310 310 310 311 313 316 318 318 320 323 324 324 326 325 323 321 319 320 320 316 310 310 309 307 304 301 298 298 297 296 297 297 298 299 299 299 298 296 295 294 294 294 294 293 293 293 293 293 293 293 293 293 293 293 292 292 292 291 291 291 291 291 292 291 291 290 290 289 288 288 288 289 290 290 289 288 288 288
312 312 312 311 311 310 309 309 309 310 314 316 317 319 321 323 325 324 324 324 323 322 319 320 321 317 312 309 309 307 304 301 299 297 297 296 296 297 297 298 298 298 297 296 295 295 294 294 293 293 293 293 293 293 293 293 293 293 293 293 292 292 292 291 291 291 291 291 291 291 290 290 289 289 288 288 287 287 287 287 289 289 288 288 288
313 312 312 311 311 310 309 309 310 311 315 320 321 321 321 322 322 322 322 322 321 320 320 321 319 313 309 309 307 304 302 300 298 297 296 296 297 297 297 298 298 297 296 295 295 294 294 293 293 293 293 293 293 293 293 293 293 292 292 292 292 292 291 291 291 291 291 290 290 289 289 288 288 288 288 287 287 287 286 285 285 286 287 288 287
313 312 312 311 310 310 309 310 313 314 314 317 318 318 318 319 319 320 320 321 320 320 321 320 315 310 309 308 304 301 299 298 297 296 296 296 297 297 297 297 297 296 295 295 294 294 293 293 293 293 293 293 293 293 293 293 292 292 292 292 291 291 291 291 291 290 290 289 289 288 288 287 287 287 287 287 286 285 285 284 284 285 285 287 287
313 313 313 312 310 310 309 310 312 314 316 318 319 320 320 320 321 321 321 321 320 320 320 316 311 309 308 305 302 299 298 296 296 296 296 296 296 296 296 296 296 295 295 294 293 293 293 293 292 293 293 292 292 292 292 292 292 292 292 291 291 290 291 290 290 289 288 288 287 287 287 287 286 286 286 286 285 285 285 284 284 285 285 285 286
313 313 313 313 311 310 310 310 311 312 315 317 318 320 320 320 320 319 319 319 319 319 316 311 309 308 306 303 300 298 296 296 295 295 295 296 295 295 295 295 295 294 294 293 293 292 292 292 292 292 292 292 292 292 292 292 292 291 291 290 290 290 290 290 289 288 287 287 286 286 286 286 286 285 285 285 285 284 284 283 283 284 284 283 283
313 313 313 313 312 311 310 311 312 313 314 316 316 317 317 316 316 317 317 317 317 315 312 309 308 307 303 300 298 297 296 295 295 295 295 295 295 295 295 294 294 294 293 293 292 292 292 292 292 292 292 292 292 292 292 291 291 291 290 290 290 290 289 289 288 287 287 286 286 286 286 286 286 285 285 284 285 284 283 283 283 283 283 281 279
312 313 313 312 313 312 311 311 312 313 313 314 315 314 313 313 315 316 315 315 313 311 309 308 307 304 300 298 297 296 295 295 295 295 295 295 294 294 294 294 294 293 292 292 292 292 292 292 292 292 292 292 291 291 291 291 291 290 290 290 290 289 289 288 287 287 286 286 286 286 285 285 285 285 284 283 283 283 284 284 284 283 283 282 280
312 312 313 312 313 313 312 312 311 312 312 312 313 313 313 314 315 314 312 311 310 309 309 307 304 301 298 297 296 295 295 295 295 295 294 294 294 294 293 293 293 292 292 292 292 291 292 292 292 291 292 291 291 291 291 290 290 290 290 290 289 289 288 288 287 286 286 286 286 286 285 285 284 284 284 283 283 283 283 283 283 283 283 283 282
311 312 312 312 312 312 312 312 312 312 312 312 313 314 314 315 314 312 310 310 309 309 308 306 302 299 297 296 295 295 294 294 294 294 294 294 293 293 293 292 292 292 292 291 291 291 291 291 291 292 292 291 291 291 290 290 290 290 290 289 289 288 288 287 287 286 286 286 286 285 285 284 284 284 283 283 283 283 283 282 282 282 282 283 282
311 311 311 312 312 312 312 312 312 312 312 313 314 314 315 314 312 310 309 309 308 307 306 303 300 297 296 295 295 294 294 294 294 294 294 293 293 292 292 292 292 291 291 291 291 291 291 292 293 292 291 291 290 290 290 290 290 290 289 289 289 288 287 287 286 286 286 286 285 285 284 284 284 284 284 283 283 283 283 283 282 281 280 280 280
311 311 311 311 311 311 311 311 312 312 313 313 314 313 313 311 310 309 309 308 308 306 303 300 297 296 295 295 295 294 294 294 293 293 293 293 292 292 292 291 291 291 291 290 290 291 293 294 294 292 291 290 290 290 290 290 289 289 289 289 288 288 287 287 286 286 286 285 285 285 284 284 284 284 284 284 283 283 283 282 281 279 278 277 278
311 310 311 311 311 311 311 311 311 311 312 312 312 312 311 310 309 309 309 308 307 305 301 298 296 295 295 295 294 294 294 293 293 293 293 292 292 292 291 291 291 290 290 290 292 294 296 295 293 291 290 290 290 290 289 289 289 289 289 289 288 287 287 286 286 286 285 285 285 284 285 285 285 285 285 284 284 283 281 280 279 278 277 276 276
310 310 310 310 310 310 310 310 311 311 311 311 311 311 310 310 309 309 308 307 305 302 299 296 295 294 294 294 294 293 293 293 293 293 292 292 291 291 291 290 290 290 291 293 296 298 297 294 291 290 290 289 289 289 289 289 288 288 288 288 288 287 287 286 286 286 285 285 285 285 285 285 285 285 285 284 284 283 281 280 279 277 276 276 277
309 309 309 309 310 310 310 310 310 310 310 310 310 310 310 309 309 308 307 305 302 299 297 295 294 294 294 293 293 293 293 293 293 292 292 291 291 291 290 290 291 292 295 297 299 298 295 292 290 290 289 289 289 289 288 288 288 288 288 288 287 287 286 286 285 285 285 285 285 285 285 285 285 285 285 284 284 283 281 280 279 276 275 276 277
309 309 309 309 309 309 309 309 309 309 310 310 310 310 309 309 308 307 306 304 300 297 295 294 294 293 293 293 293 293 293 293 292 292 291 291 291 290 290 292 294 297 298 299 299 296 293 291 290 289 289 289 288 288 288 288 288 288 288 287 287 286 286 285 285 285 285 285 285 285 285 285 285 285 285 284 284 283 282 281 279 277 276 276 277
309 310 309 309 309 309 309 309 308 309 309 309 310 309 309 308 307 306 305 302 298 295 294 293 293 293 293 293 292 292 293 292 292 291 291 290 290 291 293 296 298 299 300 299 298 295 292 290 289 288 288 288 288 288 287 287 287 287 287 287 286 286 285 285 285 285 285 285 284 285 285 285 285 285 285 284 284 284 283 281 279 277 277 277 277
309 309 309 309 309 308 308 308 308 308 308 308 309 309 308 307 306 305 303 300 297 295 293 293 293 293 292 293 292 292 292 292 291 291 290 290 292 294 297 299 300 300 300 298 296 293 291 289 288 288 288 288 287 287 287 287 287 287 287 286 286 285 285 285 285 285 285 285 284 284 284 284 285 284 284 284 284 284 284 283 281 280 279 279 278
309 309 309 308 308 308 308 307 307 307 307 308 308 308 308 307 306 304 302 299 296 294 293 293 293 293 293 292 292 292 292 291 291 290 290 291 294 298 300 300 300 300 299 297 294 291 289 288 288 288 287 287 287 287 287 287 287 287 286 286 285 285 285 285 285 285 285 285 284 284 284 284 284 284 284 284 284 285 284 284 283 283 282 280 279
309 309 308 308 307 307 307 307 307 307 306 307 307 307 307 306 305 304 301 298 295 294 293 293 293 293 293 292 292 292 292 291 291 290 290 294 298 300 301 300 300 299 298 295 293 290 288 287 287 287 287 287 287 286 286 286 286 286 286 285 285 285 284 284 284 284 285 284 284 284 284 284 284 284 284 284 284 284 285 285 285 284 283 282 280
309 308 308 307 307 307 307 306 306 306 306 306 305 305 305 305 305 304 301 297 295 293 293 293 293 292 292 292 292 292 291 291 290 290 292 296 300 301 301 300 300 298 297 294 291 289 287 287 287 287 287 286 286 286 286 286 285 285 285 285 284 284 284 284 284 284 284 284 284 284 284 283 283 283 284 284 284 284 284 284 285 285 284 283 282
308 308 307 307 307 306 306 306 305 305 304 304 304 304 304 303 303 302 300 297 295 293 292 292 292 292 292 292 292 292 291 291 290 290 293 299 301 301 300 300 299 298 296 293 290 288 287 287 286 287 286 286 286 286 286 285 285 285 284 284 284 284 284 284 284 284 284 284 284 284 283 283 283 283 283 283 284 284 284 284 284 284 283 283 282
308 307 307 306 306 306 305 305 304 304 303 303 303 303 303 302 302 301 300 298 296 294 293 293 293 293 293 292 292 291 290 290 289 290 295 300 301 300 300 299 299 298 295 291 288 287 286 286 287 287 286 286 285 285 285 285 284 284 284 284 283 283 283 283 284 284 284 284 283 283 283 283 283 283 283 283 283 283 283 283 283 283 282 281 281
307 307 307 306 306 305 305 305 304 304 303 302 302 302 302 301 301 300 298 296 294 294 293 293 293 293 292 292 292 291 291 291 290 291 297 300 300 299 299 299 297 295 291 288 287 287 286 287 287 286 286 286 285 285 285 284 284 284 283 283 283 283 283 283 283 283 283 283 283 283 283 283 283 283 283 283 283 283 283 283 282 282 281 280 280
306 307 307 306 306 305 305 304 304 303 303 302 301 301 300 300 299 298 296 293 291 291 291 292 292 292 292 292 292 291 291 291 290 293 298 300 299 298 298 297 295 292 289 288 287 287 287 287 287 286 285 285 285 285 284 284 284 283 283 283 282 282 282 283 283 283 283 283 283 283 283 283 283 282 282 283 283 283 283 282 282 281 281 280 279
306 306 306 306 305 305 304 304 303 302 302 301 300 300 299 298 298 296 295 292 291 290 290 290 291 291 291 291 291 290 290 290 291 295 299 300 298 297 297 297 296 294 291 289 288 287 287 286 286 285 285 285 285 284 284 283 283 283 282 282 282 282 282 282 282 282 282 282 282 282 282 282 282 282 282 282 282 283 282 282 281 281 280 279 279
306 306 305 305 305 304 303 303 302 301 301 300 300 299 298 298 297 296 294 292 291 290 290 290 290 290 290 290 290 290 289 289 291 296 300 300 298 297 297 297 296 295 293 291 288 287 286 286 285 285 285 285 284 284 283 282 282 282 282 282 282 281 281 281 282 282 282 282 282 282 282 282 282 282 282 282 282 282 282 281 281 281 280 279 279
305 304 304 304 304 303 303 302 301 300 300 299 299 298 298 297 297 296 294 293 291 290 290 290 290 290 290 290 289 289 289 288 290 295 299 299 298 298 298 297 295 294 294 291 288 286 286 286 285 285 285 284 284 283 283 282 281 281 281 281 281 281 281 281 281 281 281 281 281 281 281 281 281 281 282 282 282 282 281 281 281 280 280 279 279
305 304 304 303 303 303 302 302 301 300 300 299 298 297 297 296 296 295 294 292 291 290 290 290 290 290 289 289 289 289 288 288 289 294 298 298 298 297 297 295 294 294 293 290 288 286 286 285 285 285 284 284 283 283 282 281 281 281 281 280 280 280 280 280 281 281 281 281 281 281 281 281 281 281 281 281 281 281 281 280 280 280 280 279 279
304 304 304 303 303 302 302 301 301 300 300 299 299 298 297 296 295 294 293 292 291 291 290 290 290 290 289 289 289 288 288 288 289 292 296 297 296 296 295 293 294 295 294 291 288 286 285 285 285 284 284 284 283 283 282 281 280 280 280 280 280 280 280 280 280 280 280 280 280 280 280 281 281 281 281 281 281 280 280 280 280 280 279 279 279
302 303 303 303 302 302 301 300 300 299 299 299 298 298 297 296 294 293 293 292 291 290 290 289 289 289 289 289 289 288 288 288 288 291 294 295 295 294 294 293 294 294 293 289 286 285 285 285 285 284 284 283 283 282 282 281 280 280 279 279 279 279 279 280 280 280 280 280 280 280 280 280 280 280 281 280 280 279 279 279 279 279 279 279 279
300 301 301 301 301 301 301 300 299 299 298 298 297 297 296 295 294 293 292 291 291 290 289 288 288 288 288 288 289 288 288 288 288 289 292 293 292 291 292 292 291 290 288 286 285 285 285 284 284 284 284 283 283 282 282 281 280 279 279 279 279 279 279 279 279 279 279 279 279 279 279 279 280 280 280 280 279 279 279 279 279 279 278 279 279
298 298 299 299 300 300 300 300 299 298 297 297 296 295 295 294 293 293 292 291 290 289 288 288 287 288 288 288 288 288 287 287 287 288 290 291 290 291 292 292 290 288 286 284 284 284 284 284 284 284 284 284 283 283 282 281 280 279 279 279 278 278 278 278 278 279 279 279 279 279 279 279 279 279 279 279 279 278 278 278 279 279 279 278 279
296 296 296 297 297 298 298 298 298 298 297 296 295 294 294 293 292 292 291 290 289 288 288 287 287 287 287 287 287 287 287 287 287 288 289 291 291 291 292 292 290 288 285 284 284 284 284 284 284 284 284 284 283 283 282 281 280 279 278 278 278 278 278 278 278 278 278 278 278 278 279 279 279 279 279 279 278 278 277 277 278 279 279 279 279
295 295 295 295 295 296 296 297 297 297 297 296 295 294 294 293 292 291 290 289 289 288 287 287 287 286 286 286 286 286 286 287 287 288 288 290 291 291 291 291 290 288 285 284 284 284 284 284 284 284 284 284 283 283 282 281 280 279 278 278 278 278 277 277 277 277 277 277 277 278 278 278 278 279 279 278 278 277 277 277 277 278 279 279 278
294 294 294 294 294 294 294 295 295 295 295 295 295 295 294 293 292 291 290 289 289 288 287 286 286 286 285 285 285 285 285 286 286 287 287 288 289 290 290 290 288 286 285 284 284 284 284 284 284 284 284 284 283 283 282 281 280 279 278 278 278 277 277 277 277 277 277 277 277 277 277 278 278 278 278 278 278 277 277 277 277 278 279 279 278
293 293 293 293 293 293 293 293 294 294 294 294 294 294 294 293 292 291 290 289 289 288 287 286 286 285 284 284 284 284 284 284 285 285 286 287 288 289 289 287 286 285 285 284 284 283 283 284 284 283 283 283 283 283 282 281 280 279 278 278 277 277 277 276 276 276 276 276 276 276 276 277 277 278 278 278 278 277 277 277 277 278 278 278 278
292 292 292 292 292 292 293 293 293 293 293 293 293 293 293 292 292 291 290 289 288 287 286 286 285 284 284 284 283 283 283 283 284 284 285 286 287 287 287 286 285 285 284 284 283 283 284 283 283 283 283 283 283 283 282 281 280 278 278 277 277 276 276 276 276 276 276 275 275 275 275 276 277 277 277 278 278 277 277 277 277 278 278 278 278
289 290 290 290 290 290 291 291 291 292 292 292 292 292 292 292 292 291 290 290 289 287 287 286 285 284 283 283 283 282 283 283 283 284 284 285 285 286 286 286 285 284 284 284 283 283 283 283 283 283 283 283 282 282 281 280 279 278 277 277 276 276 276 275 275 275 275 275 275 275 275 275 276 276 277 277 278 277 277 277 277 277 278 278 278
288 288 288 288 288 288 289 289 289 290 290 290 291 291 291 291 291 291 290 290 289 288 287 286 284 283 283 283 282 282 282 282 283 283 283 284 284 285 285 285 285 284 283 283 283 283 283 282 282 283 283 282 282 282 281 279 278 278 277 276 276 275 275 275 275 275 275 274 274 274 274 274 274 275 276 276 277 277 277 277 277 277 277 278 278
288 288 288 288 288 288 288 288 288 288 288 288 289 289 289 290 290 290 290 290 289 289 288 286 284 283 283 282 282 282 282 282 282 282 282 283 283 283 284 284 284 283 283 283 282 282 282 282 282 283 282 282 281 280 279 279 278 277 277 276 276 275 275 275 275 275 274 274 274 274 274 274 274 274 274 275 276 277 277 276 276 277 277 277 277
288 287 287 287 287 287 287 287 287 287 287 287 287 287 288 288 289 289 289 289 289 289 288 287 286 285 284 283 282 281 281 281 281 281 281 281 282 282 283 283 283 283 282 282 282 282 281 282 282 283 282 281 280 279 278 278 277 277 276 276 275 275 275 274 274 274 274 274 274 274 274 273 273 273 274 274 275 276 276 276 276 276 277 277 277
287 287 287 287 287 287 287 287 287 287 287 287 287 287 287 287 287 287 288 288 288 288 288 288 287 286 285 284 283 281 280 280 280 280 280 280 281 281 281 282 282 282 282 281 281 281 281 282 282 282 281 280 279 278 278 277 276 276 276 276 275 275 274 274 274 274 274 274 274 274 273 273 273 273 273 273 274 274 275 275 276 276 276 276 277
287 287 287 287 287 287 287 287 287 287 287 286 286 286 286 286 286 286 286 286 287 287 287 287 287 286 285 284 283 282 280 280 279 279 279 279 280 280 281 281 281 281 281 281 281 281 281 282 282 281 280 279 278 277 276 276 276 276 275 275 275 275 274 274 274 274 274 274 273 273 273 273 272 272 272 273 273 273 274 274 275 275 275 276 276
286 286 287 287 287 286 286 286 286 286 286 286 286 286 286 286 286 286 285 285 285 286 285 285 285 285 284 284 283 281 280 279 279 279 278 279 279 279 280 280 280 280 280 280 280 281 281 281 281 280 279 278 277 276 276 275 275 275 275 275 275 275 274 274 274 274 274 274 273 273 273 272 272 272 272 272 272 273 273 273 274 274 275 275 276
286 286 286 286 286 286 286 286 286 286 286 286 285 285 285 285 285 285 285 285 285 285 285 284 284 283 283 283 282 281 280 279 278 277 277 277 278 278 279 279 279 279 279 280 280 280 281 281 280 279 278 277 276 275 275 275 275 275 275 275 275 274 274 274 274 274 274 273 273 273 273 272 272 271 271 272 272 272 272 272 272 273 274 275 275
Wind_Speed
27 28 28 29 30 30 30 31 30 30 29 29 29 29 29 28 28 28 28 28 27 26 25 24 25 25 22 20 19 19 20 20 20 20 19 18 17 16 15 14 12 10 8 6 4 4 5 6 7 8 8 9 9 10 12 14 16 18 20 22 24 26 29 30 34 39 39 37 38 40 41 43 44 45 48 50 51 52 53 55 56 56 56 56 56
24 26 28 29 30 29 29 29 28 28 28 28 29 28 28 29 28 28 28 28 27 26 25 26 27 27 23 20 20 21 21 21 21 21 20 19 18 17 16 14 12 10 8 5 4 5 6 7 8 9 9 9 10 11 13 14 16 18 20 22 24 25 28 30 33 38 41 40 39 40 41 43 44 45 47 50 52 54 56 57 58 58 57 57 58
20 23 25 27 28 28 28 28 28 27 28 28 28 29 28 27 27 28 27 28 28 26 24 25 27 25 22 21 22 22 23 23 23 22 21 19 18 17 16 14 12 9 7 6 5 6 7 8 9 9 10 10 11 12 13 15 16 19 21 22 24 25 27 29 32 36 40 41 41 41 42 43 44 46 47 50 52 54 57 58 59 59 59 59 59
18 19 21 23 25 26 26 26 26 26 27 27 27 27 26 26 28 27 26 28 29 26 23 25 25 22 22 23 23 24 25 25 25 23 21 20 18 17 16 14 12 9 7 7 7 8 8 9 9 10 10 11 11 12 14 15 17 19 21 23 24 26 27 28 31 33 37 40 41 41 42 43 44 45 48 51 52 54 57 58 59 60 60 60 60
16 17 18 19 21 23 23 24 24 25 26 25 24 25 25 26 27 26 27 29 28 24 24 26 24 23 24 25 25 26 26 26 25 23 22 21 19 18 16 13 11 9 8 8 8 9 9 10 10 11 11 11 12 13 14 16 19 20 22 23 24 26 27 28 30 32 34 38 41 41 42 43 44 45 47 50 53 55 57 58 60 61 61 61 61
15 16 17 17 18 19 20 21 22 23 22 21 21 22 22 24 25 25 26 28 26 24 26 26 25 25 26 25 26 27 27 26 25 23 22 21 20 18 16 13 11 9 9 9 10 10 10 10 11 11 11 12 12 14 15 17 19 21 22 23 25 26 27 28 29 31 33 36 39 41 42 43 44 46 46 48 50 53 56 59 61 62 63 64 64
14 15 16 16 17 17 18 18 18 18 18 17 16 18 19 23 26 26 25 27 27 27 27 26 26 26 26 27 28 28 28 27 25 23 22 21 20 18 15 13 11 10 10 10 11 11 11 11 11 12 12 12 13 15 16 18 20 21 22 24 25 26 27 28 29 31 34 36 37 39 41 42 44 46 47 47 48 50 52 56 61 63 64 65 64
13 14 15 15 16 16 15 14 14 15 17 18 19 20 21 23 26 26 25 27 28 28 26 26 27 27 28 29 29 29 28 26 25 24 23 22 20 17 15 13 12 11 11 11 11 11 11 12 12 12 12 13 15 16 17 19 20 21 22 24 25 26 27 28 30 32 33 35 36 38 40 42 43 45 47 48 49 51 51 52 56 60 62 63 62
13 14 15 15 15 14 14 13 14 15 17 19 21 22 22 24 26 27 28 28 28 27 27 27 28 30 31 31 30 29 27 26 25 25 23 21 19 17 14 13 12 12 11 11 11 11 12 12 12 12 13 14 16 17 18 19 21 21 22 24 25 26 27 29 30 32 33 34 36 37 40 41 42 44 46 47 48 50 51 51 53 57 58 60 60
15 14 15 15 15 14 15 15 16 18 18 19 21 22 23 25 28 29 29 29 29 29 29 29 30 31 32 32 31 29 28 27 26 24 23 20 18 16 15 14 13 12 11 11 11 12 12 12 12 13 14 15 16 18 19 20 21 22 23 24 25 26 28 29 30 31 32 33 34 36 39 40 40 41 43 45 46 48 49 50 52 54 55 58 60
16 16 15 15 16 16 16 17 17 18 20 21 23 24 26 28 29 30 31 31 31 30 30 30 31 32 32 32 31 30 29 28 26 24 22 20 18 16 15 14 13 12 11 11 11 11 11 12 12 13 14 16 17 18 19 20 21 22 22 23 24 26 28 29 29 30 31 32 33 33 36 38 39 39 41 44 45 46 46 46 47 50 52 53 54
17 17 17 16 17 17 18 20 20 21 23 24 25 27 29 31 31 31 31 30 30 30 31 31 32 33 33 32 31 30 29 28 26 24 22 20 18 17 15 13 12 11 11 11 11 11 11 11 12 14 15 16 18 19 20 20 21 21 22 23 24 25 26 27 28 29 30 31 32 32 32 35 38 39 40 41 43 43 44 44 45 46 48 48 48
16 17 18 18 19 19 19 22 24 25 27 28 29 31 31 30 29 28 28 29 30 32 32 33 34 34 34 32 31 29 29 27 26 24 21 20 18 16 15 13 12 11 11 11 11 11 11 11 13 14 16 17 19 20 20 20 21 21 22 23 23 24 25 25 26 27 28 29 31 30 30 33 37 38 37 36 38 39 41 42 43 44 45 46 46
16 17 18 19 20 20 21 22 23 25 26 27 29 30 30 28 28 28 29 30 32 33 34 35 36 35 33 32 30 29 28 27 25 23 21 19 18 16 15 13 12 11 11 10 10 10 10 11 13 15 17 19 20 21 21 20 21 21 22 22 22 23 24 25 25 26 26 27 29 30 31 31 33 34 33 32 32 34 36 38 39 40 43 45 46
17 18 19 20 21 22 22 23 23 24 25 26 26 27 28 29 29 30 31 32 33 34 35 36 36 35 33 32 31 29 28 26 25 23 21 19 17 16 14 13 12 11 10 10 10 9 9 11 13 16 19 20 21 21 21 21 21 22 22 21 22 22 23 24 25 25 26 27 28 30 30 29 29 29 28 28 29 29 30 31 33 35 39 44 46
16 18 20 21 21 22 22 23 24 25 26 26 26 27 29 30 30 31 32 34 35 35 36 36 36 35 34 32 31 29 28 26 25 23 21 19 17 16 14 13 12 11 10 9 8 8 9 12 14 18 20 21 21 21 22 22 21 21 22 21 22 22 23 23 24 25 26 26 27 27 27 26 25 24 24 25 26 27 29 30 32 33 36 41 45
16 18 19 20 21 22 23 23 23 24 25 27 27 28 30 30 31 32 34 35 36 37 37 37 36 35 34 32 31 30 28 26 24 22 20 19 17 15 14 13 12 10 9 8 7 8 10 12 15 19 21 21 21 22 22 22 21 21 22 22 22 23 23 23 24 24 24 25 25 24 24 23 21 21 21 23 24 26 28 31 32 32 33 36 40
17 18 18 19 20 21 22 23 24 24 25 26 28 29 30 31 32 33 35 36 37 38 38 37 36 35 33 32 31 29 27 26 24 22 20 19 17 15 14 13 11 10 8 7 7 9 10 13 17 20 21 21 21 22 22 21 21 21 22 22 23 23 23 24 24 23 23 23 23 22 21 20 19 20 21 23 25 26 27 28 29 29 29 32 35
16 16 16 17 19 20 22 23 24 25 26 26 28 29 30 31 32 34 36 37 38 38 38 38 37 35 34 32 30 29 27 25 23 22 21 19 17 16 14 12 11 9 8 8 9 10 12 15 18 20 21 21 21 21 21 21 21 21 22 23 23 23 23 24 24 24 23 23 23 22 21 19 19 20 23 25 27 27 26 26 25 24 26 30 32
13 14 15 16 17 19 21 23 24 26 27 27 28 29 31 32 33 36 37 38 39 39 39 38 37 36 35 33 31 29 27 25 24 23 21 19 18 16 14 13 11 10 10 11 12 12 14 17 19 20 21 21 21 21 20 20 20 21 21 22 23 24 24 23 23 24 24 23 23 23 21 19 19 22 24 26 27 27 26 25 23 20 21 27 30
10 12 14 15 17 18 20 22 24 25 26 27 29 30 31 33 35 37 39 40 41 41 40 39 38 36 35 33 31 30 28 27 25 24 22 20 18 16 15 13 12 12 13 13 13 13 15 18 20 21 21 21 20 20 20 19 20 20 21 21 22 23 23 22 22 22 23 22 22 22 20 20 21 22 24 26 27 28 27 25 22 20 19 22 26
8 10 12 14 16 17 19 20 22 24 26 27 29 30 32 33 36 38 40 42 42 42 41 39 38 37 35 34 32 31 30 28 26 24 22 20 18 17 15 14 13 14 14 14 13 15 17 19 20 21 20 20 20 19 19 18 19 19 20 20 20 21 21 21 21 21 21 21 21 21 21 21 22 23 24 26 27 28 29 27 24 22 21 21 22
9 11 12 14 15 16 18 19 21 22 24 26 28 30 32 34 37 40 42 43 43 43 42 40 39 38 37 35 34 33 31 30 27 25 23 21 20 18 16 15 15 15 14 14 14 16 18 20 21 20 20 19 19 18 18 18 18 18 19 19 19 19 19 19 20 20 20 20 20 20 21 22 23 24 25 26 28 29 30 30 27 26 26 25 23
11 12 12 14 15 16 17 19 20 22 24 26 28 30 32 35 38 41 43 45 45 44 43 42 41 40 39 38 37 35 33 31 28 26 25 23 21 19 17 16 16 15 15 15 16 17 19 20 21 20 19 18 18 17 17 17 17 17 18 18 17 18 18 18 19 19 19 20 20 20 21 22 23 24 25 26 28 29 30 31 31 31 31 29 26
13 13 13 14 14 15 16 18 20 22 24 26 28 30 32 35 39 43 45 46 46 46 45 44 43 42 41 40 38 36 34 32 30 28 27 25 22 19 18 17 15 15 16 17 17 19 20 21 21 19 19 18 17 17 17 17 17 17 17 17 17 17 18 18 18 19 19 20 20 20 21 21 22 23 24 26 28 29 30 31 32 32 33 31 27
15 14 14 14 15 15 16 17 19 21 23 26 28 30 33 35 39 43 45 47 48 47 47 46 44 43 42 40 38 37 35 33 31 30 28 25 21 19 18 17 16 16 18 18 18 20 22 22 20 19 18 17 17 17 17 16 16 16 16 16 16 17 17 17 18 19 19 20 20 20 21 21 21 22 23 25 27 29 30 31 32 33 33 32 30
17 16 15 15 15 16 16 17 18 20 22 25 28 30 33 36 40 43 46 48 49 48 48 46 45 44 43 41 40 38 36 34 33 32 29 24 21 20 19 18 17 18 19 18 20 22 23 21 20 19 19 18 17 17 16 16 15 15 15 16 16 17 17 17 18 19 20 20 20 20 21 21 21 22 23 24 26 28 29 30 32 32 31 31 30
18 17 16 15 15 15 16 17 17 19 21 24 27 30 32 36 40 43 45 47 48 48 48 48 47 45 44 43 41 39 37 36 35 33 28 24 21 20 19 18 18 19 19 19 21 24 23 21 20 20 20 19 18 17 16 15 15 15 15 16 17 17 17 17 17 18 19 19 20 21 21 21 21 22 23 24 25 26 28 28 29 29 29 28 27
18 18 17 17 16 15 16 16 17 18 19 21 24 27 31 34 38 41 44 46 47 48 48 48 47 45 45 44 42 41 40 38 36 32 27 23 22 21 20 19 19 19 19 21 23 24 22 22 22 22 21 20 18 17 16 15 15 15 16 16 17 17 17 17 17 17 18 18 19 20 21 21 22 22 23 23 24 25 26 27 27 26 26 24 23
15 16 16 16 16 15 15 15 16 17 19 20 22 25 29 32 36 40 43 45 47 48 48 47 46 45 44 43 42 41 39 36 33 30 26 24 24 23 21 19 18 20 21 23 24 25 24 24 24 23 21 20 19 17 16 15 15 15 16 17 17 17 17 17 17 17 17 18 19 20 21 21 22 22 22 23 23 24 25 24 24 23 23 22 21
15 15 16 15 15 15 14 15 16 17 18 20 22 24 27 31 34 38 42 45 47 48 48 47 46 45 44 43 41 40 37 34 31 29 27 26 25 23 21 20 21 24 25 25 25 27 26 25 25 23 22 21 19 17 16 15 15 16 16 17 17 17 16 16 16 16 17 17 18 19 20 21 21 21 21 22 22 23 23 22 21 21 19 19 18
15 15 16 16 16 16 15 15 16 17 19 20 21 24 26 29 33 37 41 44 47 48 48 48 47 46 45 43 42 40 37 36 34 32 30 30 27 24 22 23 25 27 26 26 27 28 27 26 25 24 22 21 19 17 16 16 16 16 16 16 17 16 16 16 15 16 16 17 17 18 19 20 20 20 20 20 21 22 21 20 20 19 17 15 14
15 15 15 17 17 17 17 16 16 17 18 19 21 23 25 28 31 34 38 43 46 48 49 49 48 47 46 45 42 40 38 37 37 36 35 33 30 27 26 27 28 28 28 28 29 29 29 28 26 23 21 20 19 18 17 17 17 16 16 16 16 15 15 15 15 15 15 16 16 17 18 19 19 19 18 18 19 20 19 17 17 17 15 13 12
16 16 16 16 17 17 17 17 17 18 18 19 21 22 24 27 29 32 36 41 45 48 49 49 49 49 47 46 44 42 41 41 41 40 39 37 34 31 29 29 30 31 31 30 31 31 31 29 25 22 21 21 19 18 18 18 18 17 16 16 15 14 14 14 14 14 14 14 15 16 17 17 18 18 18 17 18 18 17 15 14 15 14 12 10
15 16 17 17 17 17 17 17 17 18 19 19 20 22 23 25 27 31 35 39 43 46 48 49 50 50 49 48 46 45 45 45 46 45 43 40 37 34 32 33 34 36 35 34 32 32 31 28 24 22 22 21 20 18 18 18 18 17 17 16 14 14 14 14 13 13 13 13 14 15 15 16 16 17 17 16 17 17 15 13 12 12 12 11 9
14 15 16 17 18 18 18 18 18 18 19 19 20 21 22 24 27 30 33 37 41 45 48 50 51 51 50 50 49 48 48 48 49 48 45 42 41 40 38 37 38 38 36 34 32 32 30 26 24 22 22 21 20 19 19 19 18 18 17 15 15 14 14 13 13 13 13 13 13 13 14 14 15 16 16 15 15 16 15 12 11 10 10 9 8
14 15 16 17 18 19 19 19 20 20 20 20 21 22 23 24 26 29 32 36 40 43 47 50 51 51 52 52 51 50 51 51 50 49 47 45 44 44 41 38 37 36 34 33 32 31 29 25 23 22 22 21 20 20 19 19 19 19 17 15 15 15 14 13 13 12 12 12 12 12 13 13 14 15 15 15 15 14 13 11 10 9 8 8 8
16 17 18 18 19 20 20 21 21 21 21 22 22 23 24 25 27 29 32 35 38 42 46 49 51 52 53 53 52 52 52 52 52 51 50 49 48 46 42 39 37 37 35 34 33 31 28 25 23 22 22 21 21 21 20 20 20 19 18 16 16 15 14 13 13 13 12 11 12 12 12 12 13 14 14 15 15 14 13 12 10 8 7 7 8
18 18 19 20 20 21 21 22 22 23 23 24 24 25 25 27 28 29 32 34 37 41 44 48 51 53 53 52 52 52 53 54 55 55 55 53 51 48 43 39 38 38 38 36 34 31 28 25 24 23 22 22 22 21 21 21 20 19 18 17 16 15 14 14 13 12 11 11 11 12 11 11 11 12 13 14 14 13 13 12 10 8 7 6 7
18 19 19 20 20 21 21 22 22 23 24 24 25 26 27 28 29 30 32 34 36 39 43 46 50 52 52 53 53 53 54 55 56 56 56 54 51 47 42 39 38 39 39 36 33 31 28 26 25 24 24 23 22 22 22 22 21 20 19 18 17 15 15 14 13 12 11 11 11 12 11 10 10 10 11 13 13 13 12 12 11 9 7 6 7
18 19 19 20 20 21 21 21 22 22 23 24 25 26 27 28 29 30 31 33 35 38 40 44 47 49 51 53 53 53 53 54 55 54 54 52 48 44 40 38 38 38 37 36 34 31 29 27 27 26 25 24 23 24 24 23 22 21 20 18 17 16 15 14 13 12 11 11 11 11 11 10 10 10 10 11 12 12 12 12 11 9 7 7 7
18 19 19 20 21 21 21 22 22 22 23 24 24 25 26 27 28 30 31 33 34 36 38 40 43 46 49 51 52 52 53 53 53 53 52 50 47 44 40 37 36 37 37 36 34 32 30 29 29 28 26 25 24 25 25 24 23 22 21 19 17 16 16 15 13 12 12 11 11 11 10 10 10 10 10 11 11 11 11 11 11 10 9 8 8
18 19 19 20 21 21 22 22 23 23 23 24 24 25 26 26 28 29 31 32 34 35 37 38 40 42 45 48 50 51 52 53 53 53 53 51 49 46 43 38 37 37 38 37 36 35 33 32 31 29 26 26 26 26 25 25 24 23 22 20 18 17 17 16 14 14 13 12 12 11 11 10 10 11 11 11 11 11 11 11 10 10 10 9 9
17 18 18 19 20 20 21 22 22 23 24 24 25 25 26 26 27 28 29 30 32 33 35 37 38 40 42 45 47 49 51 52 53 54 54 53 51 49 45 42 39 40 41 40 39 38 36 34 32 29 27 27 27 27 26 26 25 24 22 21 20 19 18 17 16 15 15 14 13 13 12 11 11 11 11 11 12 12 11 10 10 10 10 10 10
18 19 19 19 20 20 20 21 22 23 23 24 25 26 26 27 27 28 28 29 30 31 33 35 36 38 40 42 45 47 48 50 51 53 53 54 52 50 47 44 42 43 43 42 40 39 37 35 32 30 28 28 28 27 27 26 26 25 23 22 21 20 19 19 19 18 17 16 15 14 13 12 11 11 12 12 12 12 12 11 11 11 10 10 11
20 21 21 21 22 22 22 22 23 23 24 25 25 26 26 27 28 28 29 30 30 31 32 33 34 36 38 40 42 44 45 46 48 49 51 52 51 50 48 46 44 44 44 43 40 39 37 35 32 31 30 29 28 28 28 27 26 25 24 23 22 21 20 20 20 19 18 18 17 16 15 14 13 12 13 13 13 13 13 12 12 12 11 11 11
23 24 25 25 26 26 26 26 26 26 27 27 27 27 27 28 28 29 30 30 31 31 32 32 33 34 36 38 40 41 42 43 44 46 47 49 49 48 47 46 46 45 44 43 41 40 38 36 34 32 31 30 29 29 28 28 27 26 25 24 23 22 21 21 21 21 20 20 19 18 18 16 14 14 13 13 14 14 14 13 13 13 13 12 12
26 27 28 28 29 29 30 30 30 30 30 30 30 30 30 30 30 30 31 31 32 32 33 33 34 34 35 36 37 38 39 40 41 43 45 46 46 47 46 46 45 45 45 43 42 41 39 37 35 33 31 30 30 29 28 28 27 27 26 25 24 23 23 23 22 22 22 22 21 21 20 18 16 15 15 14 15 15 15 14 13 13 13 13 13
28 29 29 30 31 31 31 32 32 32 32 32 33 33 33 32 33 33 32 32 33 33 33 34 34 34 35 35 36 36 37 38 39 40 42 43 44 44 44 44 45 45 45 44 42 41 39 37 35 34 32 31 30 29 28 28 28 27 26 25 25 25 24 24 23 23 23 23 22 22 21 20 18 17 16 16 16 16 16 15 15 14 14 13 13
29 30 30 31 32 32 32 33 33 34 34 34 34 35 35 35 35 35 34 34 35 35 34 35 35 35 35 35 35 35 35 36 36 38 39 40 41 42 42 43 44 45 44 44 43 41 39 37 36 35 33 32 30 29 29 28 28 27 26 26 26 26 25 25 25 24 23 23 23 22 22 20 20 19 18 17 17 17 18 17 16 15 14 14 14
31 32 32 33 33 34 34 35 35 35 35 35 36 36 36 36 36 36 36 36 36 36 36 35 35 35 35 34 34 34 34 34 34 35 36 38 39 40 40 41 43 43 44 44 42 41 39 38 37 35 34 32 31 30 29 28 27 27 26 26 26 26 26 26 26 25 24 23 23 22 21 21 20 20 19 19 18 18 19 19 18 16 16 15 14
Wind_Direction
258 256 255 253 251 249 247 246 244 243 243 243 242 242 240 237 235 233 233 236 235 232 234 231 233 241 241 238 233 220 210 203 195 194 194 190 188 188 193 193 192 194 196 205 223 254 278 287 290 290 290 294 299 305 310 314 317 319 322 324 325 325 325 325 323 322 325 331 333 333 334 334 334 335 333 332 333 333 333 334 335 336 337 337 336
260 257 256 254 253 253 251 250 248 246 245 244 242 241 238 235 235 232 230 234 234 230 231 228 233 241 240 232 224 214 207 201 196 196 195 193 191 190 193 194 195 198 203 216 238 259 272 277 278 280 283 289 294 300 307 311 315 318 321 323 324 325 325 325 325 324 325 329 333 333 333 334 334 334 334 333 332 333 333 335 335 336 337 337 337
261 257 254 252 251 251 249 249 248 246 245 244 241 239 235 232 233 231 230 233 231 230 233 232 234 239 235 226 218 208 203 198 197 198 194 193 194 194 194 195 198 204 213 229 246 257 264 267 270 276 280 286 293 299 305 311 315 319 321 322 324 325 326 326 325 326 326 328 332 333 333 335 335 335 335 334 334 334 334 334 334 335 336 337 337
266 262 258 254 251 249 246 245 244 242 241 240 237 235 231 228 229 229 230 230 226 226 229 230 235 239 231 220 212 204 199 197 197 197 194 192 195 197 197 198 202 209 220 235 248 253 258 262 267 274 279 284 294 300 306 312 316 319 321 323 324 325 326 326 327 328 327 327 330 333 334 335 336 337 336 334 334 334 334 334 333 334 336 338 339
270 268 263 258 253 249 245 242 240 239 237 235 233 231 228 225 226 228 229 224 221 225 229 230 236 237 228 216 207 201 198 198 198 197 195 194 195 198 200 201 206 215 226 239 248 252 256 260 265 272 278 286 295 302 308 313 315 319 321 323 324 324 326 327 328 328 327 327 329 331 333 334 336 338 338 336 335 334 333 333 334 336 338 339 341
274 271 265 259 253 247 242 240 238 236 233 231 228 225 225 222 220 225 226 221 220 227 231 234 238 233 221 211 203 200 198 198 199 199 198 197 197 200 203 205 211 220 232 243 248 252 256 261 266 272 280 289 296 302 308 313 316 319 321 322 323 324 326 328 328 328 327 329 330 330 332 335 337 338 339 340 338 336 335 334 335 338 339 340 342
279 276 269 263 256 247 240 237 235 228 224 227 226 221 223 222 217 218 221 221 224 229 231 235 236 226 213 205 200 199 199 199 198 200 200 200 200 203 205 208 216 225 234 242 248 253 260 263 270 277 283 292 299 304 311 315 317 319 320 322 324 326 328 328 328 328 329 330 332 333 335 338 339 339 339 339 338 338 339 337 336 339 341 341 341
278 276 273 267 260 253 244 236 230 221 213 215 219 217 218 219 215 216 221 224 228 233 236 237 230 216 205 201 199 199 200 201 200 200 200 201 203 204 207 212 220 228 235 243 249 256 263 267 274 282 289 297 303 308 314 316 318 320 321 324 326 327 328 328 329 331 331 332 334 337 339 340 341 340 339 339 339 339 341 339 337 338 340 339 338
273 271 269 266 258 251 244 231 224 223 216 212 215 217 217 218 218 219 222 225 229 234 236 232 222 209 201 198 199 199 201 203 203 202 202 204 205 206 210 216 223 231 238 246 254 259 265 271 279 288 296 303 307 312 315 317 319 321 323 325 327 327 328 329 332 333 334 336 339 341 341 341 342 341 339 341 341 340 341 339 337 337 336 335 336
275 270 267 265 259 250 243 234 222 220 220 218 219 220 218 218 218 218 222 227 233 235 232 222 213 206 200 198 199 200 201 203 204 203 204 206 208 209 214 220 226 234 241 249 256 261 268 277 286 294 301 307 311 314 316 319 320 322 325 327 328 329 330 332 334 336 338 341 343 344 342 341 342 342 340 342 341 339 339 337 335 335 332 331 334
276 274 268 261 255 247 242 239 231 222 218 219 220 219 218 219 222 226 230 233 233 230 222 212 206 204 202 201 201 202 202 203 203 204 205 207 209 213 218 223 228 236 244 250 256 264 274 283 292 300 306 309 312 315 317 320 321 322 325 328 329 331 332 333 336 340 343 343 344 345 343 339 340 342 342 342 340 337 336 334 331 330 329 327 328
272 273 270 262 254 246 236 232 230 226 222 221 222 224 226 228 229 231 231 228 223 217 211 207 204 203 203 203 204 203 204 205 205 206 207 208 211 215 220 226 231 238 245 252 260 270 278 288 298 304 307 310 312 315 318 319 320 322 325 327 330 332 333 335 340 343 345 344 343 344 342 339 341 345 344 340 336 334 333 332 330 328 326 325 321
267 267 268 266 259 253 243 231 227 225 224 224 226 229 232 231 228 225 221 217 213 209 206 204 204 204 204 205 205 206 206 206 206 207 208 210 214 217 222 227 233 239 247 256 265 273 283 294 302 305 309 313 314 315 316 317 319 321 324 326 329 331 333 338 343 345 345 342 340 341 343 343 343 344 341 335 330 330 330 331 332 330 328 326 324
266 262 261 262 259 256 251 242 235 231 228 227 228 230 231 227 221 217 215 213 210 208 206 204 204 205 205 206 207 208 208 208 208 209 210 212 215 219 223 228 234 241 249 258 267 277 289 299 305 310 314 314 312 311 313 315 317 319 322 325 328 330 334 340 345 344 342 340 338 342 346 346 342 339 335 330 327 328 329 329 331 331 329 330 330
266 261 256 256 255 253 250 247 242 238 234 232 230 229 225 220 215 214 214 213 212 209 207 206 206 206 207 208 209 209 209 209 210 211 212 214 217 220 224 228 235 242 250 259 268 281 295 305 312 315 312 308 307 308 310 313 315 317 320 323 327 331 337 342 344 341 340 341 343 346 347 344 337 333 332 331 330 329 328 328 329 330 331 332 334
269 265 260 256 254 252 250 247 243 240 236 233 230 225 220 216 214 214 214 213 211 210 209 208 209 209 209 210 210 210 210 211 212 213 215 216 218 221 225 230 236 244 252 260 271 290 305 312 313 309 304 302 304 306 308 310 313 315 319 322 327 334 340 343 342 341 341 343 346 346 344 339 335 336 336 335 333 332 333 335 337 338 335 332 334
274 267 263 261 258 255 253 250 246 241 237 232 226 222 219 217 217 217 215 213 211 210 210 210 210 211 212 213 213 212 211 212 213 215 217 218 220 223 227 231 237 244 250 260 280 297 303 304 302 299 298 300 302 304 306 308 312 315 318 323 329 336 341 341 341 342 342 344 346 345 341 339 339 342 342 339 339 341 341 343 345 343 335 327 330
274 267 265 263 261 258 255 252 249 244 239 234 227 223 222 222 221 220 218 216 214 212 212 211 212 213 215 216 216 215 214 214 215 217 218 220 221 224 228 232 236 240 246 260 279 286 288 291 294 295 296 298 301 302 304 308 312 315 319 324 331 337 340 339 339 341 342 343 345 344 342 343 345 347 347 347 348 350 349 348 348 343 333 326 327
275 272 269 265 263 261 257 254 251 247 244 239 234 231 230 228 226 222 219 218 216 215 214 213 214 215 215 216 217 217 216 216 217 218 220 221 222 224 228 230 231 235 245 258 269 273 279 288 292 294 295 297 299 301 304 308 313 317 321 327 333 336 337 338 338 339 341 344 344 344 345 347 348 349 351 352 353 355 354 351 349 342 333 330 331
278 273 269 263 260 260 258 256 253 250 247 244 240 238 235 232 228 224 220 218 217 216 216 216 216 217 217 216 217 217 218 218 218 220 221 221 223 225 226 227 229 235 248 257 262 268 279 289 292 293 294 295 297 300 304 308 313 318 324 329 333 334 335 336 337 337 340 342 343 343 345 347 348 350 353 354 356 357 355 353 353 346 335 334 336
288 281 277 270 265 262 259 258 257 254 250 246 243 240 237 233 229 225 221 219 217 217 217 217 217 218 218 218 218 219 220 220 219 221 222 221 223 225 225 227 231 240 250 257 262 271 283 289 291 291 291 293 296 299 303 309 314 320 326 329 331 332 332 333 335 336 338 339 339 341 342 345 348 351 353 356 358 358 355 354 355 353 344 339 337
298 289 283 277 273 269 264 262 260 258 254 250 245 242 238 233 230 226 223 221 219 218 218 218 218 219 219 220 221 221 222 222 221 220 221 221 223 225 226 230 238 248 257 261 265 275 284 287 287 287 288 290 294 297 301 308 313 319 324 327 328 328 329 331 333 335 334 334 336 339 341 343 347 350 354 358 359 357 355 355 356 355 352 349 342
290 284 278 275 274 271 268 265 261 259 256 253 249 245 240 235 230 227 224 223 221 220 219 219 220 220 220 221 222 223 224 223 222 220 219 221 224 226 230 237 246 257 265 266 267 275 283 284 282 283 285 287 291 294 299 306 312 316 320 323 324 326 327 329 331 331 329 331 335 339 341 343 345 349 354 357 357 356 356 355 354 353 352 354 352
290 284 278 275 273 271 269 266 262 259 256 253 249 245 240 235 231 227 225 223 223 222 221 221 221 222 222 223 223 223 223 223 222 220 219 222 224 227 235 244 253 264 267 263 266 275 279 278 277 279 282 284 288 292 297 304 309 312 316 319 321 323 325 326 327 327 326 329 334 339 342 343 345 349 353 354 353 354 355 353 352 351 351 352 354
297 289 283 279 276 273 271 267 263 260 257 253 250 246 241 236 231 228 226 224 224 224 223 223 223 223 224 225 225 225 224 223 223 221 221 223 227 232 242 250 259 266 262 259 267 275 275 273 274 276 280 282 286 292 297 303 306 309 312 316 318 320 322 323 325 325 326 329 334 339 340 341 344 348 351 351 350 351 351 351 349 350 349 349 353
298 292 286 282 280 276 272 269 265 262 258 255 253 249 245 240 234 230 227 225 225 225 225 225 225 225 226 227 227 227 226 225 223 222 223 226 231 239 249 256 262 263 260 261 269 272 270 270 272 276 280 283 286 291 295 299 302 305 309 312 314 317 318 320 323 324 324 328 334 337 337 339 342 346 348 348 348 348 349 348 348 348 349 348 350
300 294 287 282 279 277 276 275 270 266 262 257 253 249 245 241 237 233 230 228 226 226 226 227 227 228 229 229 228 227 227 226 224 223 224 229 237 245 252 259 264 264 262 264 270 269 266 268 272 278 282 283 284 288 291 293 297 302 305 309 311 312 313 317 320 321 324 329 333 334 335 337 339 342 344 345 346 347 348 348 347 348 349 348 347
303 299 293 287 282 278 279 279 275 272 268 263 258 253 248 243 239 237 235 233 232 231 230 230 230 231 231 231 229 227 226 226 225 225 228 235 243 249 256 263 268 268 264 265 266 264 263 268 276 279 279 279 280 283 286 289 295 300 303 304 305 305 308 313 317 318 323 327 329 330 332 334 337 340 342 344 345 346 347 348 348 349 349 348 346
303 301 297 294 290 286 283 281 279 276 271 267 263 259 253 249 245 241 239 237 236 237 237 236 237 236 236 235 233 231 230 229 229 229 233 241 248 254 259 265 268 266 264 263 263 261 264 272 276 274 272 273 276 279 283 288 293 296 298 298 298 300 304 309 313 316 320 324 325 327 329 332 336 339 340 342 344 345 346 348 350 350 349 349 348
303 301 298 296 292 287 285 282 280 277 273 269 265 261 256 252 248 244 240 237 236 236 237 239 240 240 240 240 239 238 239 238 234 232 236 244 251 254 257 261 263 261 259 259 260 262 267 271 270 267 268 272 275 277 280 284 288 290 292 291 292 296 301 305 309 314 318 322 325 327 329 332 336 339 339 340 341 343 344 348 351 352 350 349 349
299 298 297 293 287 282 278 276 276 275 273 270 266 262 258 254 250 246 242 239 237 236 237 238 239 240 241 242 241 240 239 236 232 234 241 249 252 252 255 262 265 260 256 257 259 262 265 265 264 265 268 270 272 274 276 278 280 282 284 286 288 292 297 301 306 312 317 321 325 327 329 332 335 338 339 338 338 340 343 348 351 353 354 351 350
294 293 290 288 285 281 275 273 273 273 272 271 267 264 260 256 252 248 244 241 238 237 238 238 239 240 241 241 240 238 236 232 231 236 246 251 251 251 257 263 262 258 256 256 257 258 260 260 261 264 266 267 270 272 272 271 272 273 276 280 284 288 293 297 303 310 314 319 324 326 328 332 336 340 340 336 335 338 343 347 350 353 356 355 353
294 292 288 285 283 281 279 278 277 276 275 274 271 268 264 261 257 253 249 245 241 239 238 238 238 239 240 239 238 237 235 233 234 240 248 251 250 251 257 257 254 254 255 256 256 256 257 258 258 260 264 265 267 269 269 269 269 271 273 276 280 284 289 294 301 308 313 318 322 325 327 331 335 340 339 334 334 338 342 346 348 351 354 357 357
299 298 295 290 285 282 281 279 278 278 276 274 272 270 268 266 264 259 254 249 245 242 240 239 239 239 239 239 237 234 233 233 235 240 246 248 247 250 252 250 249 253 254 252 252 253 253 253 255 258 261 263 265 267 268 268 270 272 273 275 278 282 287 293 300 306 311 315 318 320 325 329 333 338 339 334 334 338 341 343 345 347 351 355 359
302 301 300 297 293 289 285 280 277 275 273 272 271 270 269 268 266 262 258 254 251 248 245 243 241 240 239 238 237 235 234 234 236 239 244 246 247 248 247 246 250 255 254 250 249 249 249 250 253 256 258 261 263 266 267 268 270 271 272 275 278 281 285 290 297 302 306 310 313 316 321 327 332 336 338 336 334 336 339 339 340 344 347 349 353
299 297 296 294 293 291 287 283 280 276 273 272 270 268 267 265 263 262 260 257 254 251 248 246 244 243 241 239 237 236 235 236 237 240 244 247 247 247 247 249 254 257 255 249 247 246 247 249 251 254 257 260 263 265 268 269 269 270 270 273 275 278 282 286 292 296 300 303 309 313 318 324 331 335 337 337 334 334 335 333 331 335 338 339 343
293 292 291 289 287 286 284 282 281 279 277 275 271 268 266 264 263 262 260 258 256 253 250 247 245 244 243 241 239 237 236 237 239 242 244 245 245 246 249 252 255 256 251 247 245 246 247 248 251 254 258 261 264 267 269 269 269 269 270 271 272 274 279 282 284 288 293 298 304 309 314 321 328 333 336 336 334 333 331 326 321 322 325 328 333
291 291 290 288 287 286 284 282 280 278 276 274 271 270 268 266 265 264 261 260 258 256 253 250 248 246 245 244 242 239 237 237 238 240 242 243 244 246 250 254 254 251 247 245 245 246 247 248 251 254 258 261 265 268 268 268 268 268 269 270 271 273 276 278 281 284 289 295 300 303 309 318 325 331 334 334 334 335 332 325 317 312 311 317 323
290 291 290 290 290 289 287 286 283 281 278 276 273 271 270 269 268 266 264 263 262 259 256 254 252 250 248 247 245 243 240 240 241 243 244 246 246 248 252 255 255 251 247 245 245 246 247 248 250 253 257 261 264 266 267 267 267 266 267 268 270 271 274 276 278 281 286 292 295 296 302 311 319 325 330 330 331 335 335 327 318 309 304 310 316
291 291 292 292 292 291 290 290 289 288 286 283 280 277 275 273 272 271 270 268 266 263 261 259 256 254 252 250 248 247 245 245 246 247 248 249 250 252 255 258 258 253 249 247 247 247 247 248 250 253 256 259 261 263 265 265 264 263 263 264 265 267 270 271 274 278 283 286 288 288 293 302 309 315 320 322 326 332 334 330 322 310 303 307 312
291 291 292 293 293 294 294 294 294 292 290 287 285 282 279 277 275 273 272 271 270 268 266 264 262 260 257 254 252 251 250 250 250 251 252 254 255 256 260 263 261 255 251 250 250 248 246 247 250 252 254 256 259 261 262 262 262 261 260 260 261 262 264 266 269 274 279 280 280 282 287 294 300 304 307 312 318 322 325 328 327 317 305 303 307
293 293 293 294 294 295 296 296 295 294 293 291 290 288 285 281 278 275 273 272 272 271 270 268 267 265 262 259 256 254 253 253 253 253 254 256 258 259 262 263 259 255 253 252 249 247 246 248 249 250 252 254 258 260 260 260 260 259 258 257 257 257 259 263 265 269 274 276 276 280 284 287 292 297 299 302 307 310 313 321 327 324 313 305 303
298 298 297 297 296 297 297 296 296 295 295 295 294 292 290 287 284 281 277 275 274 272 271 271 270 268 266 264 261 258 257 256 255 255 256 257 259 260 262 261 257 253 252 249 246 246 246 246 245 247 251 254 256 258 258 258 257 257 256 256 255 255 257 260 263 266 270 273 275 278 282 282 284 289 292 294 296 299 303 309 317 321 317 307 302
306 306 304 303 302 301 300 299 298 297 297 296 295 294 293 291 289 287 284 281 279 276 274 273 272 270 269 267 265 262 261 259 259 258 259 259 260 261 262 260 256 252 249 247 246 246 245 244 244 246 249 251 253 255 256 255 255 255 254 254 254 255 258 261 263 265 267 270 273 276 278 279 279 282 286 288 288 289 293 296 300 306 309 305 300
312 311 310 310 308 307 305 304 302 300 299 298 297 297 296 294 292 291 289 286 284 281 278 276 274 272 271 270 268 267 265 264 263 262 261 261 262 262 262 260 255 251 248 248 247 245 244 243 244 246 248 249 252 253 253 252 252 253 253 254 254 256 259 262 264 265 266 268 270 272 274 276 276 277 280 282 282 282 285 288 289 292 296 298 297
310 310 310 310 310 309 308 307 305 304 303 301 300 299 297 295 294 293 291 289 287 285 282 280 277 275 273 272 271 270 269 268 267 265 264 263 263 262 261 259 255 251 248 247 245 243 243 243 244 246 247 248 249 249 249 249 250 251 252 254 255 257 260 262 265 267 268 268 269 270 270 271 272 273 275 277 277 277 278 281 283 284 285 287 290
308 308 308 308 308 307 307 307 305 304 303 302 300 299 297 296 294 293 292 291 289 287 286 283 281 278 276 275 274 273 272 271 270 268 267 265 264 262 260 258 255 251 248 246 244 243 243 244 246 247 247 246 245 245 246 247 248 250 252 255 257 259 261 263 266 269 271 271 271 271 270 269 269 270 272 273 274 274 273 274 276 279 279 279 281
305 305 305 305 305 305 305 304 303 303 302 301 300 298 297 296 294 293 291 291 289 288 287 286 284 282 280 278 276 275 274 272 271 270 268 266 265 262 260 258 255 251 248 246 244 244 244 245 247 248 246 243 243 243 244 245 247 249 252 256 259 261 263 265 268 270 272 272 272 272 271 270 268 269 270 271 271 272 271 270 271 273 274 276 276
303 303 303 303 303 303 303 302 301 301 300 299 298 297 296 296 295 293 292 291 289 288 287 286 285 283 282 280 278 277 275 273 271 270 269 267 266 264 262 259 255 251 247 245 245 244 245 247 248 248 245 242 241 241 242 243 246 249 253 256 260 263 265 268 271 272 273 273 273 273 272 271 269 267 267 268 269 270 270 270 270 269 270 272 273
302 301 301 301 301 301 301 301 300 300 299 298 297 296 295 294 294 293 292 291 290 289 287 286 285 284 282 281 280 278 276 273 271 270 270 268 267 265 262 259 255 250 246 245 245 245 246 247 248 246 244 241 239 239 240 241 244 248 252 255 260 264 267 270 273 274 275 275 275 274 273 271 269 267 266 266 266 267 268 269 269 268 268 268 269
298 298 298 297 298 298 298 298 298 298 297 296 296 295 294 293 292 291 290 289 288 288 287 286 285 284 282 281 279 277 276 273 271 269 268 267 266 264 262 259 255 250 246 245 246 246 247 247 247 245 242 241 239 238 239 241 243 246 250 254 258 263 267 271 274 276 276 276 275 274 274 272 268 267 266 265 264 264 265 267 268 268 267 266 267